Flag for Germany Weather past 2 weeks in Erlangen, Bavaria, Germany

Now
61 °F

Partly sunny.


Feels Like: 61 °F
Forecast: 50 / 67 °F
Wind: 3 mph from South

Location: Nuernberg

Current Time: Sep 3, 2015 at 11:39:33 AM

Latest Report: Sep 3, 2015 at 11:20 AM


Visibility: N/A

Pressure: 29.98 "Hg

Humidity: 83%

Dew point: 55 °F

Location of ErlangenLocation

Historic Weather in Erlangen — Graph

°F

Erlangen temperature yesterday

Maximum temperature yesterday: 68 °F (at 1:50 PM)
Minimum temperature yesterday: 54 °F (at 6:20 AM)
Average temperature yesterday: 61 °F

Past Weeks' High & Low Weather Summary

 TemperatureHumidityPressure
High93 °F (Aug 30, 3:50 PM)100% (Aug 19, 10:20 AM)30.27 "Hg (Aug 19, 10:20 AM)
Low46 °F (Aug 22, 5:50 AM)26% (Aug 26, 3:20 PM)29.71 "Hg (Aug 24, 3:20 PM)
Average67 °F66%30.03 "Hg
* Reported Aug 19 10:20 AM — Sep 3 10:20 AM, Erlangen, Weather by CustomWeather, © 2015

Note: Actual official high and low records may vary slightly from our data, if they occured in-between our weather recording intervals... More about our weather records

Advertising

Erlangen weather history for previous 24 hours

 ConditionsComfort  
Time TempWeatherWind HumidityBarometerVisibility
10:20 AM
Thu, Sep 3
61 °FPartly sunny.2 mph83%29.98 "HgN/A
9:50 AM59 °FBroken clouds.2 mph88%29.98 "HgN/A
9:20 AM59 °FPartly sunny.2 mph88%29.98 "Hg6 mi
8:50 AM57 °FPartly sunny.3 mph88%29.98 "Hg5 mi
8:20 AM55 °FPartly sunny.5 mph94%29.98 "Hg4 mi
7:50 AM55 °FPartly sunny.5 mph94%29.98 "Hg4 mi
7:20 AM55 °FPartly cloudy.3 mph94%29.95 "Hg5 mi
6:50 AM55 °FPassing clouds.3 mph88%29.95 "HgN/A
6:20 AM55 °FClear.3 mph94%29.95 "Hg10 mi
5:20 AM54 °FClear.6 mph94%29.98 "Hg10 mi
4:50 AM55 °FPassing clouds.3 mph88%29.98 "HgN/A
4:20 AM54 °FClear.2 mph94%29.98 "Hg10 mi
3:50 AM55 °FClear.3 mph94%29.98 "Hg10 mi
3:20 AM55 °FClear.6 mph94%29.98 "Hg10 mi
2:50 AM54 °FClear.6 mph94%29.98 "Hg10 mi
2:20 AM54 °FClear.5 mph94%29.98 "Hg10 mi
1:50 AM54 °FClear.5 mph94%29.98 "Hg10 mi
1:20 AM55 °FClear.5 mph94%30.01 "Hg10 mi
12:50 AM55 °FClear.6 mph88%30.01 "Hg10 mi
12:20 AM57 °FClear.3 mph88%30.01 "Hg10 mi
11:50 PM
Wed, Sep 2
59 °FClear.6 mph82%30.01 "Hg10 mi
11:20 PM61 °FClear.3 mph77%30.01 "Hg10 mi
10:50 PM61 °FClear.5 mph77%30.01 "Hg10 mi
10:20 PM63 °FPassing clouds.5 mph73%30.01 "HgN/A
9:50 PM63 °FPassing clouds.7 mph73%30.01 "HgN/A
9:20 PM63 °FPassing clouds.6 mph68%30.01 "HgN/A
8:50 PM63 °FSunny.3 mph68%30.01 "Hg10 mi
8:20 PM63 °FPartly sunny.2 mph64%30.01 "HgN/A
7:50 PM63 °FPartly sunny.2 mph64%30.01 "HgN/A
7:20 PM64 °FPassing clouds.5 mph60%30.01 "HgN/A
6:50 PM66 °FSunny.5 mph52%29.98 "Hg10 mi
6:20 PM66 °FPartly sunny.5 mph56%30.01 "HgN/A
5:20 PM68 °FPartly sunny.5 mph53%30.01 "HgN/A
4:50 PM68 °FPartly sunny.2 mph49%30.01 "HgN/A
4:20 PM66 °FPartly sunny.5 mph56%30.01 "HgN/A
3:50 PM68 °FPartly sunny.6 mph53%30.01 "HgN/A
3:20 PM68 °FBroken clouds.5 mph49%30.01 "HgN/A
2:50 PM66 °FScattered clouds.5 mph52%30.01 "HgN/A
2:20 PM66 °FScattered clouds.8 mph49%30.01 "HgN/A
1:50 PM68 °FScattered clouds.3 mph49%30.04 "HgN/A
1:20 PM64 °FScattered clouds.5 mph56%30.04 "HgN/A
12:50 PM66 °FScattered clouds.5 mph56%30.04 "HgN/A
12:20 PM64 °FScattered clouds.3 mph60%30.04 "HgN/A
11:50 AM63 °FScattered clouds.3 mph64%30.07 "HgN/A
11:20 AM63 °FScattered clouds.5 mph64%30.07 "HgN/A
Weather by CustomWeather, © 2015

See weather overviewHow to use our weather pages